Regional Weather Roundup
Issued by NWS

Home | Current Version | Previous Version | Graphics & Text | Print | Product List | Glossary On
Versions: 1 2 3 4 5 6 7 8 9 10 11 12 13 14 15 16 17 18 19 20 21 22 23 24 25 26 27 28 29 30 31 32 33 34 35 36 37 38 39 40 41 42 43 44 45 46 47 48 49 50
000
ASUS45 KCYS 011110
RWRWY

WYOMING REGIONAL WEATHER ROUNDUP
NATIONAL WEATHER SERVICE CHEYENNE WY
500 AM MDT FRI AUG 01 2014

NOTE:  "FAIR" INDICATES FEW OR NO CLOUDS BELOW 12,000 FEET
WITH NO SIGNIFICANT WEATHER AND/OR OBSTRUCTIONS TO VISIBILITY.

WYZ001-011200-
YELLOWSTONE NATIONAL PARK

CITY           SKY/WX    TMP DP  RH WIND       PRES   REMARKS
LK YELLOWSTONE   N/A     38  36  92 NW3       30.44S
W YELLOWSTONE  NOT AVBL

$$
WYZ002>013-054>058-071-098>099-011200-
NORTHERN WYOMING

CITY           SKY/WX    TMP DP  RH WIND       PRES   REMARKS
JACKSON        MOCLDY    48  43  81 N6        30.33S
CODY           PTCLDY    63  41  45 SW6       30.22S
GREYBULL       PTCLDY    60  43  53 S3        30.13R
WORLAND        PTCLDY    60  43  53 S3        30.15R
SHERIDAN       PTCLDY    54  43  66 S6        30.13S
BUFFALO        PTCLDY    66  35  31 NW9       30.19R
GILLETTE       CLEAR     63  42  46 S15       30.13S
HULETT         FAIR      70  43  37 MISG      30.15
NEWCASTLE      FAIR      55  43  62 CALM      30.19

$$
WYZ014>020-022>026-101>103-011200-
CENTRAL WYOMING

CITY           SKY/WX    TMP DP  RH WIND       PRES   REMARKS
BIG PINEY      CLOUDY    50  45  83 CALM      30.35R
PINEDALE       CLOUDY    50  43  76 W3        30.35S
DUBOIS         CLOUDY    48  37  66 NW9       30.37R
LANDER         CLEAR     62  36  37 VRB7      30.23S
RIVERTON       CLEAR     56  46  69 NW13      30.24R
CASPER         PTCLDY    52  40  63 W3        30.22S
DOUGLAS        CLEAR     53  44  71 CALM      30.22S

$$
WYZ021-027>030-104>119-011200-
SOUTHERN WYOMING

CITY           SKY/WX    TMP DP  RH WIND       PRES   REMARKS
EVANSTON       PTCLDY    53  43  68 E6        30.32S
KEMMERER       SUNNY     46  39  76 N13       30.34S
FORT BRIDGER   FAIR      53  44  71 W6        30.34F
ROCK SPRINGS   CLEAR     57  34  41 E5        30.31R
DIXON          FAIR      56  38  50 NE6       30.30R
RAWLINS        CLEAR     48  42  80 NE5       30.32R
SARATOGA       FAIR      46  41  81 CALM      30.33S
LARAMIE        CLEAR     45  42  89 W3        30.34F
CHEYENNE       CLEAR     51  46  83 W10       30.29F
TORRINGTON     CLEAR     50  46  86 E5        30.18R
PINE BLUFFS    FAIR      50  50 100 W5        30.25F

$$


USA.gov is the U.S. government's official web portal to all federal, state and local government web resources and services.